NOAA 16 DEB, 41716

Orbit data source: Space-Track

NOAA 16 DEB, 41716 is space debris in SSO originally from a launch on Thu, 21 Sep 2000 UTC launched from the Air Force Western Test Range (AFWTR). Debris objects in space refer to the collection of defunct objects orbiting the Earth. Examples of debris include non-operational satellites, rocket bodies, and fragments generated from explosions, collisions, or faulty payload assembly.

Loading next visibility...
Identifier
41716, 2000-055PW
Orbit
SSO
Country
Flag of USUS
Related business
Manufacturer
Unknown
Mission
Spacecraft
Bus & Motor
Unknown
Mass
Unknown
Launch date (UTC)
2000-09-21 (25 years ago)
Launch vehicle
Unknown
Launch site
Air Force Western Test Range (AFWTR)
Object type
Payload
Rocket body
Debris
Shape & HBR
Unknown shape, 0.1 m
Radar Cross Section
Small (<0.1 m²)

Expand to show TLE details & history
Last TLE update: 16 hours ago

TLE from 16 hours ago
0 NOAA 16 DEB
1 41716U 00055PW  25342.47427774  .00005549  00000-0  22908-2 0  9993
2 41716  98.6472  47.2741 0003249  20.1491 339.9817 14.27143048499137
Epoch: 2025-12-08T11:22Z
TLE epoch observation values (Epoch: 2025-12-08T11:22:57.596Z)
Latitude
-0.00007°
Longitude
159.06134°
Altitude
802.031 km
Speed
7.454 km/s
True Right ascension
03h 09m 05s
True Declination
0° 00' 00"
Sunlit
Object was in full shadow at epoch
Visualization orbit readout
Latitude
Unknown
Longitude
Unknown
Altitude
Unknown
Speed
Unknown
Apparent Right ascension
Unknown
Apparent Declination
Unknown
Sunlit
N/A
Visualization observer readout
Local Sidereal Time
01:26:58
Azimuth
Unknown
Elevation
Unknown
Doppler factor
Unknown
Orbital elements
Apogee altitude
800.774 km
Perigee altitude
796.111 km
Semi-major axis
7,176.579 km
Eccentricity
0.00032
Inclination
98.6472°
RAAN
47.2741°
Arg. of periapsis
20.1491°
True anomaly
339.96895°
Mean anomaly
339.9817°
Eccentric anomaly
339.97533°
Mean motion
3.56999 °/min
Orbital period
100.84 mins
BSTAR
0.0022908
Loading maneuver chart data...
Computing Atmospheric mass density...
Loading historical data...
Loading historical data...
Loading historical data...
Loading historical data...
Loading historical data...
Loading historical data...
Loading historical data...

Documentation

Showing up to 5 results
|